Location: Luz Observatory
(34.5000°N, 117.2833°W)
Time: 06:43:22
(UTC-07:00)

Cosmos 1484 Rocket - Visible Passes

Search period start: 26 August 2016 00:00
Search period end: 05 September 2016 00:00
Orbit: 507 x 565 km, 97.4° (Epoch: 25 August)

Date Brightness Start Highest point End Pass type
(mag) Time Alt. Az. Time Alt. Az. Time Alt. Az.
26 Aug 5.7 19:59:21 10° SW 20:02:01 18° W 20:04:41 10° NW visible
27 Aug 5.3 19:50:21 10° SSW 19:53:24 24° W 19:56:27 10° NW visible
28 Aug 4.9 19:41:27 10° SSW 19:44:47 30° W 19:48:07 10° NW visible
04 Sep 6.2 20:18:30 10° WSW 20:19:18 11° W 20:20:06 10° W visible
